Weather History for KMDQ - December, 2012

Change the Weather History Date:

Tuesday, December 4, 2012

  Actual Average (KHSV) Record (KHSV)
Temperature  
Mean Temperature 62 °F 47 °F  
Max Temperature 68 °F 56 °F 79 °F (1998)
Min Temperature 57 °F 37 °F 15 °F (1929)
Degree Days  
Heating Degree Days 2 19  
Month to date heating degree days 73  
Since 1 July heating degree days 600  
Cooling Degree Days 0 0  
Month to date cooling degree days 0  
Year to date cooling degree days 1949  
Growing Degree Days 12 (Base 50)    
Moisture  
Dew Point 52 °F    
Average Humidity 71    
Maximum Humidity 88    
Minimum Humidity 52    
Precipitation  
Precipitation 0.01 in 0.20 in 1.65 in (1923)
Month to date precipitation 0.78  
Year to date precipitation 49.35  
Snow  
Snow 0.00 in - - ()
Month to date snowfall  
Since 1 July snowfall  
Snow Depth -    
Sea Level Pressure  
Sea Level Pressure 30.20 in    
Wind  
Wind Speed 7 mph (South)    
Max Wind Speed 16 mph    
Max Gust Speed 21 mph    
Visibility 10 miles    
Events Rain    
T = Trace of Precipitation, MM = Missing Value Source: NWS Daily Summary

Daily Weather History Graph

Daily Weather History Graph

Search for Another Location

Airport or City:

Trip Planner

Search our weather history database for the weather conditions in past years. The results will help you decide how hot, cold, wet, or windy it might be!

Date:

Astronomy

Dec. 04, 2012 Rise Set
Actual Time 6:38 AM CST 4:34 PM CST
Civil Twilight 6:10 AM CST 5:02 PM CST
Nautical Twilight 5:39 AM CST 5:33 PM CST
Astronomical Twilight 5:08 AM CST 6:04 PM CST
Moon 10:12 PM CST (12/4) 10:40 AM CST (12/4)
Length of Visible Light 10h 51m
Length of Day
9h 56m
Waning Gibbous, 69% of the Moon is Illuminated
Dec 4
Waning Gibbous
Dec 6
Last Quarter
Dec 13
New
Dec 19
First Quarter
Dec 28
Full

Hourly Weather History & Observations

Time (CST) Temp. Dew Point Humidity Pressure Visibility Wind Dir Wind Speed Gust Speed Precip Events Conditions
12:15 AM 57.2 °F 48.2 °F 72% 30.20 in 10.0 mi SSE 5.8 mph - N/A   Overcast
12:35 AM 57.2 °F 48.2 °F 72% 30.20 in 10.0 mi ESE 3.5 mph - N/A   Overcast
12:55 AM 59.0 °F 48.2 °F 67% 30.20 in 10.0 mi SSE 5.8 mph - N/A   Overcast
1:15 AM 59.0 °F 50.0 °F 72% 30.20 in 10.0 mi SSE 5.8 mph - N/A   Overcast
1:35 AM 59.0 °F 50.0 °F 72% 30.20 in 10.0 mi SSE 3.5 mph - N/A   Mostly Cloudy
1:55 AM 59.0 °F 50.0 °F 72% 30.20 in 10.0 mi SSE 3.5 mph - N/A   Mostly Cloudy
2:15 AM 60.8 °F 50.0 °F 68% 30.20 in 10.0 mi SSE 4.6 mph - N/A   Overcast
2:55 AM 59.0 °F 50.0 °F 72% 30.20 in 10.0 mi Calm Calm - N/A   Overcast
3:15 AM 59.0 °F 50.0 °F 72% 30.20 in 10.0 mi Calm Calm - N/A   Overcast
3:35 AM 59.0 °F 50.0 °F 72% 30.21 in 10.0 mi Calm Calm - N/A   Overcast
3:55 AM 60.8 °F 50.0 °F 68% 30.20 in 10.0 mi SSE 3.5 mph - N/A   Overcast
4:15 AM 60.8 °F 50.0 °F 68% 30.21 in 10.0 mi South 6.9 mph - N/A   Overcast
4:35 AM 60.8 °F 50.0 °F 68% 30.22 in 10.0 mi South 4.6 mph - N/A   Overcast
4:55 AM 60.8 °F 50.0 °F 68% 30.22 in 10.0 mi South 3.5 mph - N/A   Mostly Cloudy
5:15 AM 60.8 °F 50.0 °F 68% 30.22 in 10.0 mi South 5.8 mph - N/A   Overcast
5:35 AM 60.8 °F 50.0 °F 68% 30.22 in 10.0 mi SSE 4.6 mph - N/A   Overcast
5:55 AM 60.8 °F 50.0 °F 68% 30.23 in 10.0 mi SSE 4.6 mph - N/A   Overcast
6:15 AM 60.8 °F 50.0 °F 68% 30.24 in 10.0 mi SSE 4.6 mph - N/A   Overcast
6:35 AM 60.8 °F 50.0 °F 68% 30.24 in 10.0 mi SSE 5.8 mph - N/A   Overcast
6:55 AM 60.8 °F 50.0 °F 68% 30.24 in 10.0 mi Calm Calm - N/A   Mostly Cloudy
7:15 AM 60.8 °F 50.0 °F 68% 30.24 in 10.0 mi SSE 4.6 mph - N/A   Mostly Cloudy
7:35 AM 60.8 °F 50.0 °F 68% 30.25 in 10.0 mi South 6.9 mph - N/A Rain Rain
7:55 AM 60.8 °F 50.0 °F 68% 30.25 in 10.0 mi South 6.9 mph - N/A   Overcast
8:15 AM 62.6 °F 50.0 °F 63% 30.25 in 10.0 mi South 8.1 mph - N/A   Overcast
8:35 AM 62.6 °F 48.2 °F 59% 30.25 in 10.0 mi South 9.2 mph - N/A   Overcast
8:55 AM 62.6 °F 48.2 °F 59% 30.26 in 10.0 mi South 13.8 mph 17.3 mph N/A   Mostly Cloudy
9:15 AM 64.4 °F 46.4 °F 52% 30.26 in 10.0 mi South 15.0 mph 19.6 mph N/A   Scattered Clouds
9:35 AM 64.4 °F 48.2 °F 56% 30.26 in 10.0 mi South 13.8 mph 18.4 mph N/A   Mostly Cloudy
9:55 AM 64.4 °F 50.0 °F 59% 30.26 in 10.0 mi South 10.4 mph - N/A   Overcast
10:15 AM 64.4 °F 50.0 °F 59% 30.26 in 10.0 mi South 16.1 mph - N/A   Overcast
10:35 AM 64.4 °F 51.8 °F 64% 30.25 in 10.0 mi South 13.8 mph - N/A Rain Light Rain
10:55 AM 64.4 °F 51.8 °F 64% 30.24 in 10.0 mi South 10.4 mph - N/A Rain Light Rain
11:15 AM 64.4 °F 51.8 °F 64% 30.23 in 10.0 mi South 12.7 mph - N/A   Overcast
11:35 AM 66.2 °F 53.6 °F 64% 30.22 in 10.0 mi South 15.0 mph - N/A   Overcast
11:55 AM 64.4 °F 53.6 °F 68% 30.20 in 10.0 mi South 13.8 mph - N/A   Overcast
12:15 PM 64.4 °F 53.6 °F 68% 30.19 in 10.0 mi South 13.8 mph 18.4 mph N/A Rain Light Rain
12:35 PM 66.2 °F 53.6 °F 64% 30.20 in 10.0 mi SSW 13.8 mph - N/A   Mostly Cloudy
12:55 PM 68.0 °F 55.4 °F 64% 30.19 in 10.0 mi SSW 8.1 mph - N/A   Mostly Cloudy
1:15 PM 68.0 °F 53.6 °F 60% 30.17 in 10.0 mi SSW 15.0 mph 19.6 mph N/A   Mostly Cloudy
1:35 PM 68.0 °F 53.6 °F 60% 30.16 in 10.0 mi South 12.7 mph 19.6 mph N/A   Scattered Clouds
1:55 PM 68.0 °F 53.6 °F 60% 30.16 in 10.0 mi SSW 9.2 mph - N/A   Scattered Clouds
2:15 PM 68.0 °F 53.6 °F 60% 30.16 in 10.0 mi SSW 15.0 mph 19.6 mph N/A   Scattered Clouds
2:35 PM 68.0 °F 51.8 °F 56% 30.16 in 10.0 mi SSW 10.4 mph - N/A   Scattered Clouds
2:55 PM 68.0 °F 53.6 °F 60% 30.16 in 10.0 mi South 11.5 mph - N/A   Mostly Cloudy
3:15 PM 68.0 °F 53.6 °F 60% 30.16 in 10.0 mi SSW 11.5 mph 16.1 mph N/A   Mostly Cloudy
3:35 PM 66.2 °F 53.6 °F 64% 30.17 in 10.0 mi SSW 13.8 mph 17.3 mph N/A   Mostly Cloudy
3:55 PM 66.2 °F 53.6 °F 64% 30.16 in 10.0 mi SSW 10.4 mph - N/A   Overcast
4:15 PM 66.2 °F 53.6 °F 64% 30.17 in 10.0 mi SSW 10.4 mph - N/A   Overcast
4:55 PM 64.4 °F 55.4 °F 73% 30.18 in 10.0 mi SSW 13.8 mph 20.7 mph N/A Rain Rain
5:15 PM 62.6 °F 57.2 °F 82% 30.18 in 5.0 mi South 9.2 mph - 0.01 in Rain Light Rain
5:35 PM 62.6 °F 55.4 °F 77% 30.18 in 10.0 mi SSW 11.5 mph - 0.01 in   Light Drizzle
5:55 PM 62.6 °F 57.2 °F 82% 30.18 in 10.0 mi South 9.2 mph - 0.01 in   Heavy Drizzle
6:15 PM 62.6 °F 57.2 °F 82% 30.19 in 10.0 mi SSW 11.5 mph 17.3 mph N/A Rain Rain
6:35 PM 62.6 °F 55.4 °F 77% 30.19 in 10.0 mi SSW 3.5 mph - N/A   Overcast
6:55 PM 62.6 °F 57.2 °F 82% 30.19 in 10.0 mi SSW 3.5 mph - N/A   Overcast
7:15 PM 62.6 °F 57.2 °F 82% 30.19 in 10.0 mi South 3.5 mph - N/A   Overcast
7:35 PM 60.8 °F 57.2 °F 88% 30.18 in 7.0 mi SE 5.8 mph - N/A Rain Rain
7:55 PM 60.8 °F 57.2 °F 88% 30.17 in 10.0 mi SSE 8.1 mph - N/A   Mostly Cloudy
8:15 PM 60.8 °F 57.2 °F 88% 30.18 in 10.0 mi South 8.1 mph - N/A   Mostly Cloudy
8:35 PM 60.8 °F 55.4 °F 82% 30.17 in 10.0 mi SSE 8.1 mph - N/A   Light Drizzle
8:55 PM 60.8 °F 55.4 °F 82% 30.17 in 10.0 mi South 10.4 mph - N/A   Light Drizzle
9:15 PM 59.0 °F 55.4 °F 88% 30.16 in 10.0 mi South 10.4 mph 16.1 mph N/A   Scattered Clouds
9:35 PM 59.0 °F 55.4 °F 88% 30.17 in 10.0 mi SSW 6.9 mph - N/A   Clear
9:55 PM 59.0 °F 53.6 °F 82% 30.17 in 10.0 mi Calm Calm - N/A   Clear
10:15 PM 57.2 °F 53.6 °F 88% 30.18 in 10.0 mi NW 8.1 mph - N/A   Clear
10:35 PM 59.0 °F 55.4 °F 88% 30.19 in 7.0 mi NW 11.5 mph 17.3 mph N/A   Mostly Cloudy
10:55 PM 57.2 °F 53.6 °F 88% 30.20 in 10.0 mi NW 8.1 mph - N/A   Overcast
11:15 PM 57.2 °F 53.6 °F 88% 30.20 in 10.0 mi NW 6.9 mph - N/A   Overcast
11:35 PM 57.2 °F 53.6 °F 88% 30.20 in 10.0 mi Calm Calm - N/A   Overcast
11:55 PM 57.2 °F 53.6 °F 88% 30.19 in 10.0 mi Calm Calm - N/A   Overcast